Regional Weather Roundup
Issued by NWS

Home | Current Version | Previous Version | Text Only | Print | Product List | Glossary On
Versions: 1 2 3 4 5 6 7 8 9 10 11 12 13 14 15 16 17 18 19 20 21 22 23 24 25 26 27
000
ASUS45 KBOU 010707
RWRCO

WEATHER ROUNDUP FOR COLORADO
NATIONAL WEATHER SERVICE DENVER/BOULDER CO
100 AM MDT SAT NOV 01 2014

NOTE: "FAIR" INDICATES FEW OR NO CLOUDS BELOW 12000 FEET WITH NO
SIGNIFICANT WEATHER AND/OR OBSTRUCTIONS TO VISIBILITY.

COZ001>005-013-030-031-010800-
...NORTHWEST COLORADO...

CITY           SKY/WX    TMP DP  RH WIND       PRES   REMARKS
CRAIG          PTCLDY    35  26  69 CALM      30.05F
HAYDEN         PTCLDY    45  23  42 E13       30.07S
MEEKER         PTCLDY    41  30  65 VRB5      30.05F
MOUNT WERNER   NOT AVBL
STEAMBOAT SPGS PTCLDY    39  26  58 NW3       30.10S
WALDEN         CLEAR     34  23  64 SE8       30.14S WCI  27
$$

COZ006>008-011-010800-
...WEST CENTRAL VALLEYS...

CITY           SKY/WX    TMP DP  RH WIND       PRES   REMARKS
GRAND JUNCTION PTCLDY    56  27  32 E16       29.97F
MONTROSE       CLOUDY    49  31  49 SE7       30.08F
EAGLE          CLEAR     37  25  60 SE5       30.13F
RIFLE          CLEAR     41  28  60 SW5       30.04S
DELTA          PTCLDY    47  32  56 NE5       30.05F
NUCLA          PTCLDY    59  34  38 E7        30.10F
$$

COZ017>023-064>068-010800-
...SOUTHWEST COLORADO...

CITY           SKY/WX    TMP DP  RH WIND       PRES   REMARKS
DURANGO        CLOUDY    48  43  82 NE14      30.22F
CORTEZ         PTCLDY    57  38  48 SE18G29   30.12F
PAGOSA SPRINGS RAIN      45  43  93 CALM      30.29F
TELLURIDE      PTCLDY    50  34  54 SE10G28   30.27S
WOLF CREEK PAS CLOUDY    30  30 100 SW17G25   30.41F VSB<1/4 WCI  18
$$

COZ009-010-012-014-032>034-037-058>063-010800-
...CENTRAL COLORADO...

CITY           SKY/WX    TMP DP  RH WIND       PRES   REMARKS
ASPEN          PTCLDY    45  24  43 VRB3      30.14F
BUENA VISTA    PTCLDY    29  20  71 W6        30.23S WCI  23
COPPER MTN     CLEAR     41  21  45 S24       30.37S
BERTHOUD PASS  FAIR      32  28  86 W23G29    30.37S WCI  19
COTTONWOOD PAS PTCLDY    45  21  39 W5        30.29S
GUNNISON       CLEAR     36  19  51 NE8       30.24F
KREMMLING      PTCLDY    34  27  75 CALM      30.17F
LEADVILLE      CLEAR     27  16  63 CALM      30.27F
MONARCH PASS   CLEAR     32  23  69 SW17      30.48S WCI  21
SALIDA         PTCLDY    50  29  44 SW9G17    30.29S
SUNLIGHT       PTCLDY    41  25  52 CALM      30.29F
WILKERSON PASS NOT AVBL
$$

COZ069>075-010800-
...SAN LUIS VALLEY/SANGRE DE CRISTO MOUNTAINS...

CITY           SKY/WX    TMP DP  RH WIND       PRES   REMARKS
ALAMOSA        MOCLDY    44  28  53 SE6       30.25F
LA VETA PASS   MOCLDY    37  28  70 S15G33    30.27S
SAGUACHE       PTCLDY    32  21  64 NW3       30.28S
$$

COZ035-036-038>040-010800-
...NORTHERN COLORADO FRONT RANGE...

CITY           SKY/WX    TMP DP  RH WIND       PRES   REMARKS
DENVER INTL AP PTCLDY    38  29  70 SW5       30.02F
DMNS CITY PARK   N/A     39  31  72 S3        30.01F
AURORA         PTCLDY    41  31  69 W6        30.03F
FRONT RANGE AP CLEAR     41  32  70 SW6       30.03F
ERIE MUNI ARPT CLEAR     32  30  91 CALM      30.02F
BOULDER MUN AP CLEAR     37  30  75 CALM      30.01F
CENTENNIAL     PTCLDY    37  28  70 S6        30.03F
BROOMFIELD     CLEAR     39  32  75 CALM      30.03F
FORT COLLINS   CLEAR     36  28  75 N5        30.03F
LONGMONT       CLEAR     36  31  82 CALM      30.04F
$$

COZ041-046-047-076>085-087-088-010800-
...PIKES PEAK/PALMER DIVIDE AND SOUTHERN FOOTHILLS...

CITY           SKY/WX    TMP DP  RH WIND       PRES   REMARKS
COLO. SPRINGS  MOCLDY    36  28  73 N5        30.11F
A. F. ACADEMY  PTCLDY    30  24  78 VRB7      30.10F WCI  23
ELLICOTT       PTCLDY    33  26  75 CALM      30.09F
FALCON         PTCLDY    34  27  75 W8        30.12F WCI  28
FORT CARSON    MOCLDY    36  28  71 NW5       30.09F
LIMON          CLEAR     27  23  85 S7        30.09F WCI  19
MONUMENT HILL  PTCLDY    46  25  42 SW15      30.08F
TRINIDAD       MOCLDY    52  30  43 SW20G29   30.10F
$$

COZ042>045-048>051-090-091-010800-
...NORTHEAST COLORADO...

CITY           SKY/WX    TMP DP  RH WIND       PRES   REMARKS
GREELEY ARPT   PTCLDY    30  19  64 N5        30.03F WCI  25
AKRON          CLEAR     34  25  69 S10       30.05F WCI  26
BURLINGTON     CLEAR     35  20  54 S23G32    30.10F WCI  23
WRAY           CLEAR     33  21  60 SE9       30.13F WCI  26
STERLING       CLEAR     34  28  80 SE6       30.06F WCI  29
HOLYOKE        CLEAR     34  21  60 SE12      30.12F WCI  25
FORT MORGAN    CLEAR     35  27  73 SE8       30.04F WCI  28
$$

COZ086-089-092>099-010800-
...SOUTHEAST COLORADO...

CITY           SKY/WX    TMP DP  RH WIND       PRES   REMARKS
PUEBLO         MOCLDY    42  28  57 CALM      30.07F
LA JUNTA       CLEAR     39  28  64 NW8       30.06F
LAMAR          CLEAR     41  26  55 SE9       30.10F
SPRINGFIELD      N/A     38  28  67 S22       30.14F
$$



USA.gov is the U.S. government's official web portal to all federal, state and local government web resources and services.